| time (UTC) | temp C | wind direction | speed KPH | gust KPH | rain 1hr cm | rain 24hr cm | rain mn cm | humidity % | barometer mb |
| 20260507124040 | 11 | 0 | 0.0 | 0.0 | 0.00 | 0.00 | 0.00 | 90 | 1016.1 |
| 20260507123540 | 11 | 0 | 0.0 | 0.0 | 0.00 | 0.00 | 0.00 | 89 | 1016.0 |
| 20260507123047 | 11 | 0 | 0.0 | 0.0 | 0.00 | 0.00 | 0.00 | 89 | 1016.1 |
| 20260507122539 | 11 | 0 | 0.0 | 1.6 | 0.00 | 0.00 | 0.00 | 89 | 1016.0 |
| 20260507122040 | 11 | 0 | 0.0 | 3.2 | 0.00 | 0.00 | 0.00 | 89 | 1016.0 |
| 20260507121551 | 11 | 0 | 0.0 | 3.2 | 0.00 | 0.00 | 0.00 | 89 | 1016.0 |
| 20260507121041 | 11 | 0 | 0.0 | 3.2 | 0.00 | 0.00 | 0.00 | 89 | 1016.1 |
| 20260507120539 | 11 | 0 | 0.0 | 3.2 | 0.00 | 0.00 | 0.00 | 89 | 1016.1 |
| 20260507120052 | 11 | 34 | 0.0 | 3.2 | 0.00 | 0.00 | 0.00 | 89 | 1016.1 |
| 20260507115540 | 11 | 34 | 1.6 | 3.2 | 0.00 | 0.00 | 0.00 | 89 | 1016.1 |
| 20260507115043 | 11 | 0 | 0.0 | 3.2 | 0.00 | 0.00 | 0.00 | 89 | 1016.2 |
| 20260507114604 | 11 | 34 | 0.0 | 4.8 | 0.00 | 0.00 | 0.00 | 89 | 1016.2 |
| 20260507114040 | 12 | 0 | 1.6 | 4.8 | 0.00 | 0.00 | 0.00 | 89 | 1016.2 |
| 20260507113540 | 12 | 35 | 0.0 | 3.2 | 0.00 | 0.00 | 0.00 | 89 | 1016.2 |
| 20260507113103 | 12 | 0 | 0.0 | 3.2 | 0.00 | 0.00 | 0.00 | 89 | 1016.2 |
| 20260507112541 | 12 | 35 | 1.6 | 3.2 | 0.00 | 0.00 | 0.00 | 89 | 1016.2 |
| 20260507112042 | 12 | 0 | 0.0 | 3.2 | 0.00 | 0.00 | 0.00 | 89 | 1016.1 |
| 20260507111553 | 12 | 65 | 0.0 | 3.2 | 0.00 | 0.00 | 0.00 | 89 | 1016.2 |
| 20260507111042 | 12 | 55 | 0.0 | 3.2 | 0.00 | 0.00 | 0.00 | 89 | 1016.3 |
| 20260507110540 | 12 | 0 | 0.0 | 6.4 | 0.00 | 0.00 | 0.00 | 89 | 1016.2 |
| 20260507110049 | 12 | 0 | 1.6 | 6.4 | 0.00 | 0.00 | 0.00 | 89 | 1016.4 |
| 20260507105541 | 12 | 5 | 3.2 | 8.0 | 0.00 | 0.00 | 0.00 | 89 | 1016.2 |
| 20260507105040 | 12 | 360 | 3.2 | 8.0 | 0.00 | 0.00 | 0.00 | 89 | 1016.2 |
| 20260507104548 | 12 | 355 | 3.2 | 6.4 | 0.00 | 0.00 | 0.00 | 89 | 1016.3 |
| 20260507104042 | 12 | 5 | 3.2 | 8.0 | 0.00 | 0.00 | 0.00 | 89 | 1016.3 |
| 20260507103540 | 12 | 12 | 3.2 | 8.0 | 0.00 | 0.00 | 0.00 | 90 | 1016.4 |
| 20260507103051 | 12 | 15 | 1.6 | 6.4 | 0.00 | 0.00 | 0.00 | 90 | 1016.4 |
| 20260507102543 | 12 | 355 | 1.6 | 4.8 | 0.00 | 0.00 | 0.00 | 90 | 1016.6 |
| 20260507102040 | 12 | 5 | 0.0 | 1.6 | 0.00 | 0.00 | 0.00 | 90 | 1016.5 |
| 20260507101546 | 12 | 0 | 0.0 | 0.0 | 0.00 | 0.00 | 0.00 | 90 | 1016.6 |
| 20260507101040 | 12 | 0 | 0.0 | 0.0 | 0.00 | 0.00 | 0.00 | 90 | 1016.4 |
| 20260507100540 | 12 | 0 | 0.0 | 0.0 | 0.00 | 0.00 | 0.00 | 90 | 1016.5 |
| 20260507100045 | 12 | 0 | 0.0 | 0.0 | 0.00 | 0.00 | 0.00 | 90 | 1016.6 |
| 20260507095541 | 12 | 0 | 0.0 | 0.0 | 0.00 | 0.00 | 0.00 | 90 | 1016.6 |
| 20260507095041 | 12 | 0 | 0.0 | 0.0 | 0.00 | 0.00 | 0.00 | 90 | 1016.6 |
| 20260507094549 | 12 | 0 | 0.0 | 0.0 | 0.00 | 0.00 | 0.00 | 90 | 1016.6 |
| 20260507094042 | 12 | 0 | 0.0 | 0.0 | 0.00 | 0.00 | 0.00 | 90 | 1016.7 |
| 20260507093539 | 12 | 0 | 0.0 | 0.0 | 0.00 | 0.00 | 0.00 | 90 | 1016.8 |
| 20260507093052 | 12 | 0 | 0.0 | 0.0 | 0.00 | 0.00 | 0.00 | 90 | 1016.7 |
| 20260507092541 | 12 | 0 | 0.0 | 0.0 | 0.00 | 0.00 | 0.00 | 90 | 1016.7 |
| 20260507092042 | 12 | 0 | 0.0 | 3.2 | 0.00 | 0.00 | 0.00 | 90 | 1016.8 |
| 20260507091549 | 12 | 0 | 0.0 | 4.8 | 0.00 | 0.00 | 0.00 | 90 | 1016.8 |
| 20260507091040 | 12 | 0 | 0.0 | 4.8 | 0.00 | 0.00 | 0.00 | 89 | 1016.8 |
| 20260507090541 | 12 | 5 | 1.6 | 4.8 | 0.00 | 0.00 | 0.00 | 89 | 1017.0 |
| 20260507090050 | 12 | 5 | 0.0 | 3.2 | 0.00 | 0.00 | 0.00 | 89 | 1016.9 |
| 20260507085540 | 12 | 5 | 1.6 | 3.2 | 0.00 | 0.00 | 0.00 | 89 | 1017.0 |
| 20260507085039 | 12 | 0 | 0.0 | 3.2 | 0.00 | 0.00 | 0.00 | 89 | 1017.1 |
| 20260507084600 | 12 | 5 | 0.0 | 4.8 | 0.00 | 0.00 | 0.00 | 89 | 1017.2 |
| 20260507084039 | 12 | 5 | 0.0 | 4.8 | 0.00 | 0.00 | 0.00 | 89 | 1017.1 |
| 20260507083542 | 12 | 5 | 0.0 | 3.2 | 0.00 | 0.00 | 0.00 | 89 | 1017.2 |
| 20260507083053 | 12 | 5 | 0.0 | 3.2 | 0.00 | 0.00 | 0.00 | 89 | 1017.3 |
| 20260507082539 | 12 | 0 | 0.0 | 3.2 | 0.00 | 0.00 | 0.00 | 89 | 1017.3 |
| 20260507082039 | 12 | 0 | 0.0 | 6.4 | 0.00 | 0.00 | 0.00 | 89 | 1017.3 |
| 20260507081558 | 12 | 0 | 0.0 | 6.4 | 0.00 | 0.00 | 0.00 | 89 | 1017.3 |
| 20260507081039 | 12 | 5 | 1.6 | 6.4 | 0.00 | 0.00 | 0.00 | 89 | 1017.2 |
| 20260507080540 | 12 | 64 | 1.6 | 3.2 | 0.00 | 0.00 | 0.00 | 90 | 1017.2 |
| 20260507080049 | 12 | 0 | 0.0 | 4.8 | 0.00 | 0.00 | 0.00 | 90 | 1017.3 |
| 20260507075540 | 12 | 80 | 0.0 | 4.8 | 0.00 | 0.00 | 0.00 | 89 | 1017.2 |
| 20260507075042 | 12 | 80 | 0.0 | 4.8 | 0.00 | 0.00 | 0.00 | 90 | 1017.3 |
| 20260507074550 | 12 | 80 | 1.6 | 4.8 | 0.00 | 0.00 | 0.00 | 90 | 1017.2 |
| 20260507074043 | 12 | 60 | 1.6 | 4.8 | 0.00 | 0.00 | 0.00 | 90 | 1017.3 |
| 20260507073540 | 12 | 35 | 0.0 | 4.8 | 0.00 | 0.00 | 0.00 | 89 | 1017.3 |
| 20260507073054 | 12 | 0 | 1.6 | 4.8 | 0.00 | 0.00 | 0.00 | 89 | 1017.2 |
| 20260507072540 | 12 | 30 | 1.6 | 6.4 | 0.00 | 0.00 | 0.00 | 89 | 1017.2 |
| 20260507072042 | 12 | 0 | 1.6 | 6.4 | 0.00 | 0.00 | 0.00 | 89 | 1017.3 |
| 20260507071554 | 13 | 5 | 1.6 | 4.8 | 0.00 | 0.00 | 0.00 | 89 | 1017.3 |
| 20260507071040 | 13 | 0 | 1.6 | 3.2 | 0.00 | 0.00 | 0.00 | 89 | 1017.4 |
| 20260507070540 | 13 | 0 | 1.6 | 3.2 | 0.00 | 0.00 | 0.00 | 89 | 1017.4 |
| 20260507070051 | 13 | 42 | 0.0 | 3.2 | 0.00 | 0.00 | 0.00 | 89 | 1017.5 |
| 20260507065540 | 13 | 0 | 0.0 | 3.2 | 0.00 | 0.00 | 0.00 | 90 | 1017.4 |
| 20260507065039 | 13 | 0 | 0.0 | 3.2 | 0.00 | 0.00 | 0.00 | 90 | 1017.5 |
| 20260507064550 | 13 | 38 | 0.0 | 4.8 | 0.00 | 0.00 | 0.00 | 90 | 1017.5 |
| 20260507064043 | 13 | 0 | 0.0 | 4.8 | 0.00 | 0.00 | 0.00 | 90 | 1017.5 |
| 20260507063540 | 13 | 0 | 0.0 | 4.8 | 0.00 | 0.00 | 0.00 | 90 | 1017.4 |
| 20260507063059 | 13 | 22 | 1.6 | 4.8 | 0.00 | 0.00 | 0.00 | 90 | 1017.5 |
| 20260507062540 | 13 | 0 | 0.0 | 4.8 | 0.00 | 0.00 | 0.00 | 89 | 1017.5 |
| 20260507062040 | 13 | 22 | 1.6 | 4.8 | 0.00 | 0.00 | 0.00 | 89 | 1017.5 |
| 20260507061552 | 13 | 19 | 0.0 | 4.8 | 0.00 | 0.00 | 0.00 | 89 | 1017.5 |
| 20260507061043 | 13 | 19 | 1.6 | 4.8 | 0.00 | 0.00 | 0.00 | 89 | 1017.5 |
| 20260507060538 | 13 | 12 | 1.6 | 4.8 | 0.00 | 0.00 | 0.00 | 89 | 1017.6 |
| 20260507060057 | 13 | 26 | 0.0 | 6.4 | 0.00 | 0.00 | 0.00 | 89 | 1017.6 |
| 20260507055540 | 13 | 5 | 3.2 | 6.4 | 0.00 | 0.00 | 0.00 | 89 | 1017.7 |
| 20260507055039 | 13 | 13 | 3.2 | 4.8 | 0.00 | 0.00 | 0.00 | 89 | 1017.7 |
| 20260507054554 | 13 | 13 | 0.0 | 4.8 | 0.00 | 0.00 | 0.00 | 89 | 1017.7 |
| 20260507054042 | 13 | 0 | 1.6 | 4.8 | 0.00 | 0.00 | 0.00 | 89 | 1017.8 |
| 20260507053542 | 13 | 13 | 0.0 | 4.8 | 0.00 | 0.00 | 0.00 | 89 | 1017.6 |
| 20260507053052 | 13 | 13 | 1.6 | 4.8 | 0.00 | 0.00 | 0.00 | 89 | 1017.6 |
| 20260507052544 | 13 | 132 | 0.0 | 3.2 | 0.00 | 0.00 | 0.00 | 89 | 1017.7 |
| 20260507052040 | 13 | 132 | 0.0 | 3.2 | 0.00 | 0.00 | 0.00 | 89 | 1017.7 |
| 20260507051552 | 13 | 0 | 0.0 | 3.2 | 0.00 | 0.00 | 0.00 | 89 | 1017.7 |
| 20260507051041 | 13 | 132 | 0.0 | 3.2 | 0.00 | 0.00 | 0.00 | 89 | 1017.6 |
| 20260507050540 | 14 | 132 | 0.0 | 4.8 | 0.00 | 0.00 | 0.00 | 89 | 1017.6 |
| 20260507050050 | 14 | 132 | 0.0 | 4.8 | 0.00 | 0.00 | 0.00 | 89 | 1017.5 |
| 20260507045542 | 14 | 0 | 1.6 | 4.8 | 0.00 | 0.00 | 0.00 | 89 | 1017.5 |
| 20260507045039 | 14 | 0 | 0.0 | 3.2 | 0.00 | 0.00 | 0.00 | 89 | 1017.5 |
| 20260507044601 | 14 | 0 | 0.0 | 0.0 | 0.00 | 0.00 | 0.00 | 89 | 1017.5 |
| 20260507044040 | 14 | 0 | 0.0 | 0.0 | 0.00 | 0.00 | 0.00 | 89 | 1017.5 |
| 20260507043540 | 14 | 0 | 0.0 | 0.0 | 0.00 | 0.00 | 0.00 | 89 | 1017.5 |
| 20260507043104 | 14 | 0 | 0.0 | 0.0 | 0.00 | 0.00 | 0.00 | 89 | 1017.5 |
| 20260507042541 | 14 | 0 | 0.0 | 0.0 | 0.00 | 0.00 | 0.00 | 89 | 1017.5 |
| 20260507042044 | 14 | 0 | 0.0 | 4.8 | 0.00 | 0.00 | 0.00 | 89 | 1017.4 |
| 20260507041554 | 14 | 0 | 0.0 | 4.8 | 0.00 | 0.00 | 0.00 | 89 | 1017.4 |
| 20260507041041 | 14 | 132 | 1.6 | 4.8 | 0.00 | 0.00 | 0.00 | 88 | 1017.4 |
| 20260507040540 | 15 | 0 | 0.0 | 4.8 | 0.00 | 0.00 | 0.00 | 88 | 1017.3 |
| 20260507040051 | 15 | 131 | 1.6 | 4.8 | 0.00 | 0.00 | 0.00 | 88 | 1017.2 |
| 20260507035539 | 15 | 150 | 1.6 | 4.8 | 0.00 | 0.00 | 0.00 | 88 | 1017.2 |
| 20260507035039 | 15 | 150 | 0.0 | 6.4 | 0.00 | 0.00 | 0.00 | 87 | 1017.2 |
| 20260507034551 | 15 | 150 | 1.6 | 8.0 | 0.00 | 0.00 | 0.00 | 87 | 1017.1 |
| 20260507034040 | 15 | 148 | 4.8 | 8.0 | 0.00 | 0.00 | 0.00 | 87 | 1017.0 |
| 20260507033540 | 15 | 153 | 1.6 | 8.0 | 0.00 | 0.00 | 0.00 | 86 | 1016.9 |
| 20260507033052 | 15 | 153 | 1.6 | 8.0 | 0.00 | 0.00 | 0.00 | 86 | 1016.9 |
| 20260507032540 | 15 | 111 | 1.6 | 8.0 | 0.00 | 0.00 | 0.00 | 86 | 1016.8 |
| 20260507032039 | 15 | 136 | 1.6 | 4.8 | 0.00 | 0.00 | 0.00 | 85 | 1016.8 |
| 20260507031549 | 15 | 0 | 0.0 | 6.4 | 0.00 | 0.00 | 0.00 | 85 | 1016.7 |
| 20260507031039 | 15 | 0 | 0.0 | 6.4 | 0.00 | 0.00 | 0.00 | 85 | 1016.6 |
| 20260507030539 | 15 | 191 | 1.6 | 9.7 | 0.00 | 0.00 | 0.00 | 84 | 1016.5 |
| 20260507030049 | 15 | 188 | 3.2 | 9.7 | 0.00 | 0.00 | 0.00 | 84 | 1016.4 |
| 20260507025540 | 15 | 209 | 4.8 | 9.7 | 0.00 | 0.00 | 0.00 | 84 | 1016.5 |
| 20260507025040 | 15 | 174 | 3.2 | 11.3 | 0.00 | 0.00 | 0.00 | 84 | 1016.5 |
| 20260507024553 | 15 | 211 | 3.2 | 12.9 | 0.00 | 0.00 | 0.00 | 83 | 1016.5 |
| 20260507024040 | 16 | 217 | 4.8 | 12.9 | 0.00 | 0.00 | 0.00 | 82 | 1016.4 |
| 20260507023540 | 16 | 215 | 8.0 | 11.3 | 0.00 | 0.00 | 0.00 | 81 | 1016.4 |
| 20260507023103 | 16 | 165 | 6.4 | 11.3 | 0.00 | 0.00 | 0.00 | 79 | 1016.3 |
| 20260507022540 | 16 | 205 | 4.8 | 12.9 | 0.00 | 0.00 | 0.00 | 78 | 1016.3 |
| 20260507022040 | 16 | 217 | 6.4 | 12.9 | 0.00 | 0.00 | 0.00 | 78 | 1016.3 |
| 20260507021550 | 16 | 186 | 4.8 | 11.3 | 0.00 | 0.00 | 0.00 | 78 | 1016.3 |
| 20260507021040 | 16 | 172 | 4.8 | 11.3 | 0.00 | 0.00 | 0.00 | 78 | 1016.2 |
| 20260507020540 | 16 | 203 | 6.4 | 12.9 | 0.00 | 0.00 | 0.00 | 79 | 1016.2 |
| 20260507020057 | 16 | 232 | 6.4 | 12.9 | 0.00 | 0.00 | 0.00 | 79 | 1016.2 |
| 20260507015539 | 16 | 201 | 4.8 | 16.1 | 0.00 | 0.00 | 0.00 | 79 | 1016.2 |
| 20260507015040 | 16 | 182 | 9.7 | 16.1 | 0.00 | 0.00 | 0.00 | 79 | 1016.2 |
| 20260507014553 | 16 | 200 | 8.0 | 19.3 | 0.00 | 0.00 | 0.00 | 79 | 1016.2 |
| 20260507014040 | 17 | 177 | 9.7 | 19.3 | 0.00 | 0.00 | 0.00 | 78 | 1016.1 |
| 20260507013541 | 17 | 189 | 8.0 | 16.1 | 0.00 | 0.00 | 0.00 | 77 | 1016.1 |
| 20260507013045 | 17 | 197 | 9.7 | 16.1 | 0.00 | 0.00 | 0.00 | 76 | 1016.1 |
| 20260507012546 | 17 | 181 | 9.7 | 16.1 | 0.00 | 0.00 | 0.00 | 74 | 1016.2 |
| 20260507012040 | 17 | 195 | 8.0 | 14.5 | 0.00 | 0.00 | 0.00 | 73 | 1016.1 |
| 20260507011550 | 18 | 180 | 8.0 | 16.1 | 0.00 | 0.00 | 0.00 | 73 | 1016.1 |
| 20260507011039 | 18 | 191 | 6.4 | 16.1 | 0.00 | 0.00 | 0.00 | 72 | 1016.1 |
| 20260507010540 | 18 | 230 | 8.0 | 16.1 | 0.00 | 0.00 | 0.00 | 71 | 1016.1 |
| 20260507010050 | 18 | 225 | 8.0 | 17.7 | 0.00 | 0.00 | 0.00 | 72 | 1016.3 |
| 20260507005540 | 18 | 207 | 9.7 | 17.7 | 0.00 | 0.00 | 0.00 | 71 | 1016.2 |
| 20260507005040 | 18 | 189 | 8.0 | 22.5 | 0.00 | 0.00 | 0.00 | 70 | 1016.2 |
| 20260507004551 | 18 | 236 | 8.0 | 22.5 | 0.00 | 0.00 | 0.00 | 71 | 1016.3 |
| 20260507004039 | 17 | 183 | 9.7 | 22.5 | 0.00 | 0.00 | 0.00 | 70 | 1016.3 |
| 20260507003541 | 18 | 177 | 9.7 | 22.5 | 0.00 | 0.00 | 0.00 | 71 | 1016.3 |
| 20260507003103 | 17 | 276 | 11.3 | 25.7 | 0.00 | 0.00 | 0.00 | 71 | 1016.2 |
| 20260507002545 | 17 | 243 | 11.3 | 25.7 | 0.00 | 0.00 | 0.00 | 70 | 1016.3 |
| 20260507002042 | 17 | 248 | 12.9 | 25.7 | 0.00 | 0.00 | 0.00 | 68 | 1016.3 |
| 20260507001611 | 18 | 242 | 12.9 | 24.1 | 0.00 | 0.00 | 0.00 | 68 | 1016.4 |
| 20260507001041 | 18 | 245 | 14.5 | 24.1 | 0.00 | 0.00 | 0.00 | 67 | 1016.3 |
| 20260507000543 | 18 | 202 | 14.5 | 27.4 | 0.00 | 0.00 | 0.00 | 67 | 1016.3 |
| 20260507000052 | 18 | 206 | 12.9 | 27.4 | 0.00 | 0.00 | 0.00 | 67 | 1016.3 |
| 20260506235540 | 18 | 216 | 11.3 | 22.5 | 0.00 | 0.00 | 0.00 | 68 | 1016.3 |
| 20260506235040 | 18 | 210 | 12.9 | 24.1 | 0.00 | 0.00 | 0.00 | 67 | 1016.4 |
| 20260506234554 | 18 | 241 | 14.5 | 30.6 | 0.00 | 0.00 | 0.00 | 67 | 1016.2 |
| 20260506234040 | 18 | 227 | 16.1 | 30.6 | 0.00 | 0.00 | 0.00 | 67 | 1016.3 |
| 20260506233540 | 18 | 244 | 12.9 | 25.7 | 0.00 | 0.00 | 0.00 | 65 | 1016.3 |
| 20260506233050 | 18 | 258 | 9.7 | 27.4 | 0.00 | 0.00 | 0.00 | 66 | 1016.2 |
| 20260506232539 | 18 | 223 | 12.9 | 27.4 | 0.00 | 0.00 | 0.00 | 69 | 1016.3 |
| 20260506232040 | 18 | 257 | 12.9 | 27.4 | 0.00 | 0.00 | 0.00 | 68 | 1016.3 |
| 20260506231554 | 18 | 221 | 14.5 | 25.7 | 0.00 | 0.00 | 0.00 | 69 | 1016.4 |
| 20260506231040 | 17 | 254 | 17.7 | 27.4 | 0.00 | 0.00 | 0.00 | 69 | 1016.4 |
| 20260506230540 | 18 | 209 | 12.9 | 30.6 | 0.00 | 0.00 | 0.00 | 69 | 1016.4 |
| 20260506230058 | 18 | 254 | 12.9 | 30.6 | 0.00 | 0.00 | 0.00 | 68 | 1016.4 |
| 20260506225540 | 18 | 209 | 12.9 | 30.6 | 0.00 | 0.00 | 0.00 | 68 | 1016.5 |
| 20260506225040 | 18 | 225 | 9.7 | 22.5 | 0.00 | 0.00 | 0.00 | 69 | 1016.6 |
| 20260506224548 | 18 | 183 | 11.3 | 22.5 | 0.00 | 0.00 | 0.00 | 70 | 1016.7 |
| 20260506224039 | 18 | 180 | 12.9 | 22.5 | 0.00 | 0.00 | 0.00 | 71 | 1016.8 |
| 20260506223541 | 18 | 230 | 12.9 | 29.0 | 0.00 | 0.00 | 0.00 | 71 | 1016.8 |
| 20260506223055 | 18 | 188 | 14.5 | 29.0 | 0.00 | 0.00 | 0.00 | 70 | 1016.9 |
| 20260506222540 | 18 | 232 | 11.3 | 22.5 | 0.00 | 0.00 | 0.00 | 68 | 1017.2 |
| 20260506222040 | 18 | 209 | 9.7 | 22.5 | 0.00 | 0.00 | 0.00 | 71 | 1017.2 |
| 20260506221605 | 18 | 184 | 11.3 | 22.5 | 0.00 | 0.00 | 0.00 | 70 | 1017.3 |
| 20260506221039 | 18 | 222 | 12.9 | 22.5 | 0.00 | 0.00 | 0.00 | 72 | 1017.3 |
| 20260506220539 | 18 | 288 | 14.5 | 22.5 | 0.00 | 0.00 | 0.00 | 69 | 1017.3 |
| 20260506220051 | 18 | 257 | 11.3 | 24.1 | 0.00 | 0.00 | 0.00 | 70 | 1017.4 |
| 20260506215542 | 18 | 240 | 12.9 | 24.1 | 0.00 | 0.00 | 0.00 | 69 | 1017.5 |
| 20260506215040 | 18 | 226 | 9.7 | 25.7 | 0.00 | 0.00 | 0.00 | 71 | 1017.6 |
| 20260506214555 | 18 | 219 | 12.9 | 25.7 | 0.00 | 0.00 | 0.00 | 71 | 1017.6 |
| 20260506214040 | 18 | 196 | 12.9 | 24.1 | 0.00 | 0.00 | 0.00 | 71 | 1017.7 |
| 20260506213540 | 18 | 252 | 14.5 | 24.1 | 0.00 | 0.00 | 0.00 | 72 | 1017.8 |
| 20260506213103 | 18 | 211 | 12.9 | 25.7 | 0.00 | 0.00 | 0.00 | 72 | 1017.8 |
| 20260506212540 | 18 | 190 | 12.9 | 25.7 | 0.00 | 0.00 | 0.00 | 70 | 1017.8 |
| 20260506212040 | 18 | 212 | 12.9 | 25.7 | 0.00 | 0.00 | 0.00 | 70 | 1017.8 |
| 20260506211548 | 18 | 230 | 11.3 | 25.7 | 0.00 | 0.00 | 0.00 | 70 | 1017.8 |
| 20260506211039 | 18 | 202 | 9.7 | 24.1 | 0.00 | 0.00 | 0.00 | 68 | 1017.9 |
| 20260506210540 | 18 | 194 | 9.7 | 24.1 | 0.00 | 0.00 | 0.00 | 69 | 1018.0 |
| 20260506210056 | 18 | 218 | 9.7 | 20.9 | 0.00 | 0.00 | 0.00 | 68 | 1018.0 |
| 20260506205541 | 18 | 240 | 11.3 | 22.5 | 0.00 | 0.00 | 0.00 | 66 | 1018.1 |
| 20260506205039 | 18 | 259 | 12.9 | 22.5 | 0.00 | 0.00 | 0.00 | 66 | 1018.1 |
| 20260506204547 | 18 | 219 | 9.7 | 17.7 | 0.00 | 0.00 | 0.00 | 65 | 1018.1 |
| 20260506204038 | 19 | 236 | 6.4 | 19.3 | 0.00 | 0.00 | 0.00 | 67 | 1018.0 |
| 20260506203540 | 18 | 211 | 8.0 | 20.9 | 0.00 | 0.00 | 0.00 | 67 | 1018.0 |
| 20260506203049 | 18 | 269 | 9.7 | 20.9 | 0.00 | 0.00 | 0.00 | 68 | 1018.1 |
| 20260506202541 | 18 | 201 | 9.7 | 24.1 | 0.00 | 0.00 | 0.00 | 70 | 1018.1 |
| 20260506202040 | 18 | 176 | 9.7 | 24.1 | 0.00 | 0.00 | 0.00 | 70 | 1018.2 |
| 20260506201549 | 18 | 186 | 11.3 | 19.3 | 0.00 | 0.00 | 0.00 | 69 | 1018.2 |
| 20260506201040 | 18 | 157 | 9.7 | 22.5 | 0.00 | 0.00 | 0.00 | 70 | 1018.3 |
| 20260506200548 | 18 | 217 | 11.3 | 22.5 | 0.00 | 0.00 | 0.00 | 68 | 1018.3 |
| 20260506200056 | 18 | 214 | 8.0 | 19.3 | 0.00 | 0.00 | 0.00 | 69 | 1018.3 |
| 20260506195541 | 18 | 232 | 8.0 | 19.3 | 0.00 | 0.00 | 0.00 | 69 | 1018.4 |
| 20260506195041 | 18 | 169 | 8.0 | 22.5 | 0.00 | 0.00 | 0.00 | 70 | 1018.3 |
| 20260506194554 | 18 | 222 | 6.4 | 22.5 | 0.00 | 0.00 | 0.00 | 72 | 1018.3 |
| 20260506194040 | 18 | 193 | 11.3 | 22.5 | 0.00 | 0.00 | 0.00 | 72 | 1018.4 |
| 20260506193543 | 18 | 209 | 9.7 | 20.9 | 0.00 | 0.00 | 0.00 | 71 | 1018.4 |
| 20260506193101 | 18 | 209 | 12.9 | 20.9 | 0.00 | 0.00 | 0.00 | 72 | 1018.5 |
| 20260506192540 | 18 | 202 | 9.7 | 22.5 | 0.00 | 0.00 | 0.00 | 72 | 1018.5 |
| 20260506192040 | 18 | 188 | 11.3 | 22.5 | 0.00 | 0.00 | 0.00 | 73 | 1018.5 |
| 20260506191555 | 17 | 218 | 9.7 | 22.5 | 0.00 | 0.00 | 0.00 | 73 | 1018.5 |
| 20260506191042 | 18 | 163 | 14.5 | 20.9 | 0.00 | 0.00 | 0.00 | 72 | 1018.5 |
| 20260506190538 | 18 | 213 | 8.0 | 20.9 | 0.00 | 0.00 | 0.00 | 73 | 1018.4 |
| 20260506190054 | 18 | 214 | 9.7 | 17.7 | 0.00 | 0.00 | 0.00 | 71 | 1018.5 |
| 20260506185537 | 18 | 213 | 6.4 | 17.7 | 0.00 | 0.00 | 0.00 | 72 | 1018.5 |
| 20260506185040 | 18 | 211 | 8.0 | 19.3 | 0.00 | 0.00 | 0.00 | 72 | 1018.6 |
| 20260506184557 | 17 | 208 | 8.0 | 20.9 | 0.00 | 0.00 | 0.00 | 74 | 1018.5 |
| 20260506184043 | 17 | 146 | 11.3 | 20.9 | 0.00 | 0.00 | 0.00 | 74 | 1018.6 |
| 20260506183544 | 17 | 216 | 12.9 | 24.1 | 0.00 | 0.00 | 0.00 | 74 | 1018.6 |
| 20260506183053 | 17 | 190 | 12.9 | 24.1 | 0.00 | 0.00 | 0.00 | 75 | 1018.7 |
| 20260506182541 | 17 | 205 | 11.3 | 22.5 | 0.00 | 0.00 | 0.00 | 74 | 1018.6 |
| 20260506182042 | 17 | 218 | 9.7 | 20.9 | 0.00 | 0.00 | 0.00 | 75 | 1018.6 |
| 20260506181555 | 17 | 194 | 12.9 | 20.9 | 0.00 | 0.00 | 0.00 | 75 | 1018.7 |
| 20260506181040 | 17 | 215 | 8.0 | 20.9 | 0.00 | 0.00 | 0.00 | 74 | 1018.7 |
| 20260506180543 | 18 | 205 | 11.3 | 19.3 | 0.00 | 0.00 | 0.00 | 74 | 1018.7 |
| 20260506180053 | 18 | 219 | 8.0 | 20.9 | 0.00 | 0.00 | 0.00 | 74 | 1018.6 |
| 20260506175540 | 17 | 178 | 11.3 | 20.9 | 0.00 | 0.00 | 0.00 | 73 | 1018.7 |
| 20260506175040 | 18 | 167 | 8.0 | 16.1 | 0.00 | 0.00 | 0.00 | 72 | 1018.7 |
| 20260506174556 | 18 | 228 | 6.4 | 14.5 | 0.00 | 0.00 | 0.00 | 72 | 1018.6 |
| 20260506174040 | 17 | 232 | 6.4 | 16.1 | 0.00 | 0.00 | 0.00 | 71 | 1018.6 |
| 20260506173540 | 17 | 238 | 8.0 | 16.1 | 0.00 | 0.00 | 0.00 | 72 | 1018.7 |
| 20260506173059 | 17 | 190 | 8.0 | 16.1 | 0.00 | 0.00 | 0.00 | 72 | 1018.7 |
| 20260506172541 | 17 | 207 | 4.8 | 17.7 | 0.00 | 0.00 | 0.00 | 72 | 1018.6 |
| 20260506172041 | 17 | 215 | 9.7 | 17.7 | 0.00 | 0.00 | 0.00 | 71 | 1018.7 |
| 20260506171551 | 17 | 254 | 6.4 | 14.5 | 0.00 | 0.00 | 0.00 | 71 | 1018.6 |
| 20260506171040 | 17 | 256 | 3.2 | 17.7 | 0.00 | 0.00 | 0.00 | 71 | 1018.5 |
| 20260506170541 | 17 | 183 | 6.4 | 17.7 | 0.00 | 0.00 | 0.00 | 72 | 1018.5 |
| 20260506170054 | 17 | 176 | 8.0 | 14.5 | 0.00 | 0.00 | 0.00 | 72 | 1018.6 |
| 20260506165543 | 17 | 215 | 3.2 | 16.1 | 0.00 | 0.00 | 0.00 | 73 | 1018.6 |
| 20260506165040 | 17 | 170 | 4.8 | 16.1 | 0.00 | 0.00 | 0.00 | 74 | 1018.6 |
| 20260506164611 | 17 | 181 | 6.4 | 14.5 | 0.00 | 0.00 | 0.00 | 73 | 1018.7 |
| 20260506164039 | 17 | 228 | 6.4 | 14.5 | 0.00 | 0.00 | 0.00 | 74 | 1018.6 |
| 20260506163540 | 16 | 171 | 4.8 | 12.9 | 0.00 | 0.00 | 0.00 | 74 | 1018.7 |
| 20260506163056 | 16 | 195 | 3.2 | 11.3 | 0.00 | 0.00 | 0.00 | 73 | 1018.7 |
| 20260506162543 | 16 | 173 | 6.4 | 11.3 | 0.00 | 0.00 | 0.00 | 73 | 1018.7 |
| 20260506162042 | 16 | 172 | 4.8 | 9.7 | 0.00 | 0.00 | 0.00 | 73 | 1018.6 |
| 20260506161553 | 16 | 219 | 3.2 | 9.7 | 0.00 | 0.00 | 0.00 | 73 | 1018.7 |
| 20260506161040 | 16 | 0 | 3.2 | 8.0 | 0.00 | 0.00 | 0.00 | 73 | 1018.7 |
| 20260506160542 | 16 | 193 | 4.8 | 8.0 | 0.00 | 0.00 | 0.00 | 72 | 1018.7 |
| 20260506155540 | 16 | 0 | 1.6 | 9.7 | 0.00 | 0.00 | 0.00 | 73 | 1018.6 |
| 20260506155040 | 16 | 84 | 0.0 | 6.4 | 0.00 | 0.00 | 0.00 | 73 | 1018.6 |
| 20260506154554 | 15 | 5 | 1.6 | 8.0 | 0.00 | 0.00 | 0.00 | 73 | 1018.6 |
| 20260506154040 | 15 | 42 | 3.2 | 11.3 | 0.00 | 0.00 | 0.00 | 74 | 1018.6 |
| 20260506153544 | 15 | 360 | 4.8 | 11.3 | 0.00 | 0.00 | 0.00 | 74 | 1018.5 |
| 20260506153050 | 15 | 13 | 6.4 | 11.3 | 0.00 | 0.00 | 0.00 | 75 | 1018.6 |
| 20260506152540 | 15 | 48 | 4.8 | 14.5 | 0.00 | 0.00 | 0.00 | 76 | 1018.6 |
| 20260506152043 | 14 | 15 | 3.2 | 14.5 | 0.00 | 0.00 | 0.00 | 77 | 1018.7 |
| 20260506151554 | 14 | 49 | 8.0 | 14.5 | 0.00 | 0.00 | 0.00 | 77 | 1018.7 |
| 20260506151048 | 13 | 5 | 6.4 | 16.1 | 0.00 | 0.00 | 0.00 | 78 | 1018.6 |
| 20260506150539 | 13 | 349 | 8.0 | 16.1 | 0.00 | 0.00 | 0.00 | 78 | 1018.7 |
| 20260506150103 | 13 | 355 | 4.8 | 16.1 | 0.00 | 0.00 | 0.00 | 79 | 1018.6 |
| 20260506145542 | 13 | 24 | 9.7 | 16.1 | 0.00 | 0.00 | 0.00 | 78 | 1018.6 |
| 20260506145040 | 13 | 30 | 4.8 | 16.1 | 0.00 | 0.00 | 0.00 | 80 | 1018.6 |
| 20260506144552 | 13 | 30 | 9.7 | 16.1 | 0.00 | 0.00 | 0.00 | 79 | 1018.7 |
| 20260506144040 | 13 | 36 | 6.4 | 16.1 | 0.00 | 0.00 | 0.00 | 80 | 1018.6 |
| 20260506143540 | 13 | 9 | 6.4 | 16.1 | 0.00 | 0.00 | 0.00 | 81 | 1018.5 |
| 20260506143100 | 12 | 40 | 6.4 | 16.1 | 0.00 | 0.00 | 0.00 | 82 | 1018.4 |
| 20260506142540 | 12 | 11 | 4.8 | 16.1 | 0.00 | 0.00 | 0.00 | 83 | 1018.5 |
| 20260506142039 | 12 | 9 | 8.0 | 14.5 | 0.00 | 0.00 | 0.00 | 84 | 1018.4 |
| 20260506141555 | 12 | 9 | 6.4 | 12.9 | 0.00 | 0.00 | 0.00 | 84 | 1018.4 |
| 20260506141040 | 11 | 29 | 4.8 | 12.9 | 0.00 | 0.00 | 0.00 | 85 | 1018.4 |
| 20260506140540 | 11 | 28 | 6.4 | 11.3 | 0.00 | 0.00 | 0.00 | 85 | 1018.4 |
| 20260506140051 | 11 | 12 | 4.8 | 9.7 | 0.00 | 0.00 | 0.00 | 86 | 1018.3 |
| 20260506135540 | 11 | 5 | 4.8 | 9.7 | 0.00 | 0.00 | 0.00 | 86 | 1018.4 |
| 20260506135039 | 11 | 40 | 4.8 | 9.7 | 0.00 | 0.00 | 0.00 | 86 | 1018.4 |
| 20260506134554 | 11 | 18 | 3.2 | 8.0 | 0.00 | 0.00 | 0.00 | 86 | 1018.3 |
| 20260506134042 | 11 | 42 | 3.2 | 8.0 | 0.00 | 0.00 | 0.00 | 86 | 1018.3 |
| 20260506133540 | 11 | 28 | 3.2 | 8.0 | 0.00 | 0.00 | 0.00 | 85 | 1018.3 |
| 20260506133107 | 11 | 61 | 3.2 | 8.0 | 0.00 | 0.00 | 0.00 | 85 | 1018.3 |
| 20260506132540 | 11 | 49 | 3.2 | 6.4 | 0.00 | 0.00 | 0.00 | 84 | 1018.3 |
| 20260506132043 | 11 | 59 | 3.2 | 8.0 | 0.00 | 0.00 | 0.00 | 84 | 1018.2 |
| 20260506131605 | 11 | 42 | 3.2 | 11.3 | 0.00 | 0.00 | 0.00 | 85 | 1018.2 |
| 20260506131042 | 11 | 19 | 4.8 | 11.3 | 0.00 | 0.00 | 0.00 | 85 | 1018.1 |
| 20260506130540 | 11 | 360 | 4.8 | 9.7 | 0.00 | 0.00 | 0.00 | 85 | 1018.1 |
| 20260506130044 | 11 | 341 | 1.6 | 8.0 | 0.00 | 0.00 | 0.00 | 86 | 1018.0 |
| 20260506125539 | 11 | 36 | 3.2 | 9.7 | 0.00 | 0.00 | 0.00 | 86 | 1018.0 |
| 20260506125039 | 11 | 30 | 4.8 | 11.3 | 0.00 | 0.00 | 0.00 | 86 | 1018.0 |
| 20260506124550 | 11 | 5 | 4.8 | 11.3 | 0.00 | 0.00 | 0.00 | 86 | 1017.9 |